FENGYUN 1C DEB

Satellite information

Favourite Embed

Satellite Type and Status

DEBRISIN ORBIT

Key statistics

Satellite FENGYUN 1C DEB at a glance.

Uptime

9715

Days in orbit

Revolutions

≈ 14.1

Per day

Orbit

SSO

Sun Synchronous Orbit

Inclination

98.7

Latest

Satellite identification and parameters

Extended collection of information and parameters for FENGYUN 1C DEB.

Object identification

Identified? True

Debris? True

Object name: FENGYUN 1C DEB

International designator: 1999-025EKN

Object number (NORAD): 37594

Object ID (CCSDS): 37594

Country: PEOPLES REPUBLIC OF CHINA (PRC)

Current information (Y/N): Y

RCS size: SMALL

Orbital parameters

Period: 102.047 minutes

Inclination: 98.7348 deg

SMA: 7233.689 km

Apoapsis: 917.056 km

Periapsis: 794.052 km

RAAN: 15.4051 deg

Eccentricy: 0.00850219

Argument of periapsis: 271.7365 deg

Mean anomaly: 87.407 deg

Mean motion: 14.11116962 rev/day

Mean motion (dot): 0.0000063 rev/day2

B* drag term: 0.00036155709 1/REarth

Two-line elements (TLE)

Creation date: Dec. 12, 2025, 10:14 a.m.

Reference frame: TEME

Reference center: EARTH

Epoch: Dec. 12, 2025, 1:13 a.m. UTC

TLE line 0: 0 FENGYUN 1C DEB

TLE line 1: 1 37594U 99025EKN 25346.05076849 .00000630 00000-0 36156-3 0 9995

TLE line 2: 2 37594 98.7348 15.4051 0085022 271.7365 87.4070 14.11116962777529

Live tracking on map

Real-time ground track for satellite FENGYUN 1C DEB.

In-orbit conjunctions

A list of the most updated potential collisions computed for object FENGYUN 1C DEB.

Target Orbit TCA Probability of collision Miss distance Type
CZ-6A DEB LEO 2025-11-08 09:15:10 0.0002624941 114.0 (m) DEBRIS
SL-16 R/B LEO 2025-08-15 00:39:55 0.0002327669 197.0 (m) ROCKET BODY
COSMOS 1275 DEB LEO 2024-11-09 00:57:10 0.0001413062 845.0 (m) DEBRIS
CZ-6A DEB LEO 2024-10-11 22:02:39 0.0001336547 956.0 (m) DEBRIS
COSMOS 397 DEB * LEO 2024-09-25 02:18:52 0.0003796394 129.0 (m) DEBRIS

Associated space launch

Chinese polar orbiting meteorological satellite

FENGYUN 1C DEB was lifted into orbit during the mission ‘Long March 4B | Feng Yun 1C’, on board a Long March 4B space rocket.

The launch took place on May 10, 1999, 1:33 a.m. from Launch Complex 7.

For more information about the launch, click the button.

Launch to space Long March 4B | Feng Yun 1C
Long March 4B | Feng Yun 1C

Agency: N/A

Status: Launch Successful

Launch date: May 10, 1999, 1:33 a.m. UTC

Rocket: Long March 4B

Launch pad: Launch Complex 7

Location: Taiyuan Satellite Launch Center, People's Republic of China

...

Latest news about this satellite

There are no fresh news available about this satellite. Check back as we update our databases every day.


Newsletter sign-up

Weekly statistics, charts and insights to help you stay on top of the space industry.